Wind_Speed
11 10 9 8 7 6 5 4 4 5 5 5 5 5 5 6 6 7 8 8 9 10 10 9 9 8 8 8 8 7 6 6 6 5 5 4 4 4 4 4 4 4 4
12 11 10 9 8 6 5 5 6 6 5 6 6 6 6 6 6 6 8 9 9 10 11 11 11 10 10 10 10 9 9 8 8 7 7 6 6 6 5 5 6 6 5
11 11 11 11 10 7 6 6 7 7 7 7 8 7 7 7 7 7 8 9 9 10 10 11 12 12 11 11 12 12 11 11 10 10 9 9 8 8 7 7 7 7 7
13 12 12 13 12 10 8 7 7 8 8 8 8 8 8 8 7 7 8 9 10 11 11 10 12 12 13 13 13 13 13 13 12 11 11 11 10 10 9 8 8 8 9
14 14 13 13 12 11 9 9 9 9 9 9 9 9 9 8 8 8 9 9 10 11 11 11 11 13 13 13 14 15 15 14 13 13 13 12 12 12 11 10 10 10 10
16 15 14 14 13 11 10 10 9 10 10 10 9 9 9 9 9 9 9 10 10 11 12 12 13 13 14 13 14 15 15 16 15 15 15 14 14 14 14 13 13 13 13
16 15 14 14 13 12 11 11 11 11 11 11 10 9 10 9 10 11 10 10 11 11 11 13 13 14 14 14 15 15 16 17 17 17 17 16 16 16 15 16 16 15 15
15 14 14 13 13 12 12 12 12 12 12 12 12 11 10 10 10 11 11 10 11 12 12 13 13 14 14 14 15 16 17 18 18 18 18 18 17 17 17 17 17 18 17
14 12 13 13 13 13 13 12 12 12 11 11 12 11 10 10 11 11 11 11 12 13 14 14 14 14 15 16 16 17 18 18 18 19 19 19 19 19 19 19 19 20 19
13 13 12 11 13 13 12 12 12 11 12 12 12 12 11 10 10 11 12 12 13 13 14 15 15 15 16 16 16 17 18 18 19 20 21 20 20 20 21 20 21 21 21
14 12 11 11 12 12 12 11 12 12 12 12 13 12 12 11 11 11 13 14 14 14 15 15 16 16 16 16 17 18 19 19 19 20 22 22 22 22 22 22 22 22 23
14 13 11 10 12 12 11 11 12 12 12 13 13 12 12 12 12 12 13 14 14 15 16 16 16 16 17 17 17 18 19 19 20 20 21 22 23 23 23 23 23 23 24
14 13 11 10 12 12 11 11 12 12 12 12 12 12 13 13 13 13 12 12 13 14 15 15 16 17 17 18 18 18 19 20 20 21 22 23 23 23 24 24 25 25 26
12 11 10 10 11 10 10 10 11 11 12 12 12 12 13 12 12 12 12 12 13 13 13 14 15 16 17 17 17 18 19 20 20 21 21 22 23 23 24 25 26 26 26
9 9 9 10 10 11 11 11 11 11 11 11 11 11 11 12 12 12 12 12 12 13 13 14 15 16 16 16 17 17 18 19 20 21 22 22 23 24 25 25 25 26 26
9 9 10 10 11 10 10 11 11 11 12 11 11 11 12 12 12 12 12 12 13 13 14 15 16 16 16 16 17 18 19 20 21 21 22 23 23 24 24 25 25 26 27
11 11 11 11 10 11 11 11 12 12 12 11 11 11 11 11 12 12 12 13 13 14 14 15 16 16 17 17 17 17 18 19 19 21 22 23 24 24 25 25 26 26 27
13 12 12 11 11 12 11 12 12 12 12 12 11 11 12 12 12 12 12 12 13 14 14 15 16 17 17 18 18 18 18 18 19 20 21 23 24 25 25 26 26 27 28
14 13 13 13 13 13 13 13 12 12 13 13 12 12 12 12 12 12 13 12 13 13 14 15 16 16 16 16 17 17 18 19 19 20 21 22 23 24 25 27 28 29 30
17 16 15 15 15 15 14 13 13 13 13 12 12 12 12 13 13 13 14 14 14 14 14 15 15 15 15 16 17 18 19 19 20 21 21 22 23 24 25 26 28 29 29
18 17 17 17 16 15 15 14 14 13 13 13 14 14 14 14 14 15 15 15 15 15 15 15 15 16 16 18 18 19 20 20 21 22 22 22 23 24 25 27 27 28 29
19 18 18 17 17 16 16 16 15 15 15 15 15 15 15 15 15 16 15 15 16 16 16 16 16 17 17 17 18 19 20 20 21 21 21 22 23 24 24 25 26 28 29
21 20 19 19 18 17 17 17 16 16 16 16 16 16 16 16 16 15 15 15 16 16 17 17 17 18 17 18 19 20 20 21 21 21 22 22 23 23 25 26 27 28 29
21 21 20 20 19 18 18 17 17 17 17 16 16 17 16 16 15 15 16 16 16 17 16 16 16 17 17 18 19 20 20 21 21 22 22 23 24 25 26 27 28 30 31
20 21 21 21 22 20 19 18 19 19 18 17 17 17 16 16 16 16 16 17 17 17 17 17 17 17 18 18 19 20 21 22 22 23 24 25 26 27 28 29 31 33 35
20 19 19 20 19 19 18 18 19 19 19 19 19 18 17 17 16 17 17 17 17 17 17 17 18 18 19 19 20 21 22 23 24 25 26 27 28 29 31 32 34 36 37
Wind_Direction
298 297 298 298 297 299 306 306 306 309 310 303 295 279 265 257 252 246 244 238 235 237 237 235 232 234 237 239 237 233 233 233 232 231 237 243 244 247 252 253 253 248 242
290 295 300 298 295 293 289 293 290 291 295 295 295 285 270 263 254 248 247 245 238 236 235 235 235 238 241 243 239 237 236 236 234 235 237 240 246 245 251 254 252 250 252
286 291 291 289 285 278 279 280 277 282 289 290 288 290 279 271 257 249 249 249 242 239 234 234 236 241 245 246 244 241 239 238 237 238 240 243 246 250 254 257 253 249 253
280 284 284 281 279 272 273 278 270 277 287 287 285 286 288 280 261 252 247 247 248 247 240 241 243 245 244 247 248 244 241 241 241 240 242 246 247 251 256 254 250 253 252
280 281 280 278 274 271 271 279 270 274 283 285 282 282 282 274 266 256 252 249 248 247 245 245 247 250 249 250 247 244 243 243 243 243 244 246 248 251 255 253 251 254 255
279 274 274 275 272 267 263 269 270 273 280 282 284 281 280 273 268 265 259 248 247 249 249 248 251 253 254 254 251 246 245 247 247 246 246 247 251 253 255 256 253 253 255
275 272 267 266 264 260 261 266 267 270 277 282 286 283 281 274 269 267 262 252 250 250 252 252 252 253 255 256 255 251 248 250 251 251 249 251 254 254 257 258 256 255 256
275 274 267 261 256 257 259 261 267 270 275 282 287 283 277 273 268 262 258 254 253 253 254 254 254 256 255 256 254 255 253 253 253 254 252 252 254 256 259 260 259 257 258
274 273 266 262 254 255 257 261 266 271 276 283 284 281 274 270 264 260 256 254 257 256 254 253 254 258 260 258 255 253 254 254 254 254 255 256 255 257 259 261 261 260 259
263 267 264 260 253 249 252 258 264 270 275 279 279 275 274 271 266 259 256 255 259 256 254 255 259 262 266 262 256 253 253 254 255 255 256 256 257 258 260 261 261 261 261
265 264 262 264 258 258 255 258 263 268 271 275 278 275 270 267 267 262 260 259 257 255 258 262 263 263 264 261 256 255 254 255 256 256 257 258 259 261 262 262 261 261 263
264 263 261 263 257 257 256 261 265 270 273 275 276 272 271 269 268 266 267 262 258 259 262 265 265 263 264 264 263 263 261 259 257 256 258 260 261 261 262 263 264 264 264
265 262 256 257 257 257 259 264 266 271 274 277 277 271 269 271 268 268 267 264 263 264 265 266 266 266 266 264 263 263 262 259 259 260 261 260 261 262 262 263 264 266 266
261 254 251 255 258 261 264 269 272 276 278 278 278 273 270 271 270 267 265 263 263 264 266 268 268 268 265 261 262 263 264 262 261 261 261 260 262 264 265 265 266 266 267
254 251 257 260 265 269 271 272 274 279 279 280 280 276 272 272 271 266 260 263 266 266 267 268 270 271 267 264 265 266 267 263 262 262 262 263 265 267 267 267 267 268 270
260 261 263 269 275 279 279 276 278 279 280 280 280 277 272 273 270 265 262 265 267 269 270 269 270 270 268 267 269 268 269 266 265 267 268 268 267 268 270 269 270 270 272
262 264 265 269 277 279 280 280 279 279 280 278 277 278 276 274 271 269 267 266 269 273 270 270 271 270 267 266 269 269 269 270 268 269 270 269 267 268 271 272 272 272 273
260 262 264 268 273 278 282 284 279 278 281 278 277 278 275 274 274 274 272 272 272 273 271 270 272 272 270 270 268 267 271 272 273 272 271 271 270 270 271 272 273 274 274
257 258 261 266 272 276 281 283 281 282 283 280 276 279 277 275 274 276 273 273 276 277 274 274 275 275 274 273 271 272 274 276 277 278 277 274 275 273 272 273 274 275 275
256 259 263 267 271 274 277 278 279 280 282 280 279 282 281 278 276 275 275 276 279 280 280 280 281 277 275 274 273 274 275 277 279 281 281 278 276 275 273 277 278 277 278
257 260 262 264 268 271 274 275 277 278 277 280 282 284 287 283 281 280 278 278 278 279 280 282 282 279 278 277 276 277 277 280 281 281 282 281 280 278 278 280 281 281 282
257 261 263 263 266 268 270 272 273 275 276 279 282 285 285 285 283 282 279 278 278 279 279 279 280 280 279 278 278 278 279 281 283 283 285 287 285 283 282 282 283 283 284
256 259 263 265 266 267 267 269 270 272 275 279 282 283 284 287 284 283 281 279 278 279 280 279 278 279 278 278 279 280 282 284 286 288 289 289 289 288 287 286 287 287 288
255 258 260 263 265 265 266 267 269 271 274 278 283 286 286 288 285 284 280 279 281 282 282 282 282 281 280 280 281 281 284 287 289 291 291 292 292 292 292 290 289 290 291
253 257 258 259 262 264 266 268 269 270 273 277 282 286 285 285 285 285 284 281 281 281 278 279 280 282 283 283 283 284 286 288 290 292 292 292 292 293 292 292 292 292 292
256 257 257 257 258 262 266 268 269 272 275 277 280 284 283 282 283 284 284 284 284 285 283 281 281 284 285 286 286 287 289 290 291 292 292 293 293 294 294 294 294 294 294
Height
5899 5899 5898 5897 5896 5896 5896 5896 5896 5895 5895 5895 5894 5894 5894 5894 5894 5895 5895 5896 5897 5898 5899 5900 5901 5901 5902 5903 5904 5904 5905 5906 5906 5907 5907 5907 5907 5907 5907 5906 5906 5906 5905
5897 5897 5896 5896 5895 5895 5895 5894 5894 5894 5893 5893 5892 5892 5892 5892 5892 5892 5893 5894 5895 5895 5896 5897 5898 5899 5900 5901 5902 5902 5903 5904 5905 5905 5905 5906 5906 5906 5906 5905 5905 5905 5904
5895 5895 5894 5894 5894 5893 5893 5892 5892 5892 5891 5891 5890 5890 5890 5890 5890 5890 5890 5891 5892 5893 5894 5895 5896 5896 5897 5898 5899 5900 5901 5902 5903 5903 5904 5904 5904 5905 5905 5904 5904 5903 5903
5892 5892 5892 5892 5891 5891 5890 5890 5889 5889 5889 5888 5888 5888 5887 5887 5887 5888 5888 5889 5889 5890 5891 5892 5893 5894 5895 5895 5896 5897 5898 5899 5900 5901 5901 5902 5902 5903 5903 5903 5902 5902 5901
5890 5889 5889 5889 5888 5887 5887 5887 5887 5887 5887 5886 5886 5885 5885 5884 5884 5885 5885 5886 5887 5887 5888 5889 5890 5891 5892 5892 5893 5894 5895 5896 5897 5898 5899 5899 5900 5900 5900 5900 5900 5900 5899
5886 5886 5886 5886 5885 5885 5884 5884 5884 5884 5884 5884 5883 5882 5882 5882 5882 5882 5882 5883 5884 5884 5885 5886 5887 5888 5888 5889 5890 5891 5892 5893 5894 5895 5895 5896 5896 5897 5897 5897 5897 5897 5897
5882 5882 5882 5882 5882 5881 5881 5882 5882 5881 5881 5880 5879 5879 5879 5879 5879 5879 5879 5880 5881 5881 5882 5883 5883 5884 5885 5885 5886 5887 5888 5889 5890 5891 5892 5892 5893 5893 5894 5894 5894 5894 5894
5877 5877 5878 5878 5878 5878 5878 5878 5878 5878 5877 5877 5876 5875 5875 5876 5876 5876 5876 5877 5877 5878 5878 5879 5880 5881 5881 5881 5882 5883 5884 5885 5886 5887 5887 5888 5888 5889 5890 5890 5890 5889 5889
5873 5874 5874 5874 5874 5875 5875 5875 5875 5874 5874 5873 5872 5872 5872 5872 5873 5873 5873 5874 5874 5875 5875 5876 5876 5877 5877 5877 5878 5878 5879 5880 5881 5882 5883 5883 5884 5884 5885 5885 5885 5885 5885
5870 5870 5870 5870 5870 5870 5869 5870 5871 5871 5871 5870 5869 5869 5869 5869 5869 5869 5870 5870 5871 5871 5872 5872 5872 5873 5873 5873 5873 5874 5874 5876 5876 5877 5878 5878 5879 5879 5879 5879 5880 5880 5880
5866 5867 5866 5866 5866 5866 5866 5867 5867 5867 5867 5866 5866 5865 5866 5866 5866 5866 5867 5867 5867 5868 5868 5869 5869 5869 5869 5868 5868 5869 5870 5870 5871 5871 5872 5873 5873 5873 5874 5874 5874 5874 5874
5862 5862 5862 5863 5863 5863 5863 5863 5864 5864 5864 5863 5862 5862 5862 5862 5863 5863 5863 5863 5863 5864 5864 5864 5864 5864 5864 5864 5864 5864 5865 5865 5866 5866 5867 5867 5867 5868 5868 5868 5868 5868 5868
5859 5858 5858 5860 5860 5860 5860 5860 5861 5861 5860 5859 5859 5859 5859 5859 5859 5859 5859 5859 5860 5860 5860 5860 5860 5859 5859 5859 5859 5859 5860 5860 5860 5861 5861 5862 5862 5862 5862 5862 5862 5862 5861
5854 5854 5855 5856 5857 5857 5857 5858 5857 5857 5857 5856 5855 5855 5855 5855 5855 5855 5855 5855 5856 5856 5856 5856 5855 5855 5854 5854 5855 5855 5855 5855 5855 5855 5855 5856 5856 5856 5856 5856 5856 5855 5855
5851 5851 5853 5854 5854 5855 5854 5854 5854 5854 5853 5853 5852 5851 5851 5851 5851 5851 5851 5852 5851 5852 5852 5851 5851 5850 5850 5850 5850 5851 5851 5851 5851 5850 5850 5850 5850 5850 5850 5849 5849 5848 5848
5849 5850 5850 5851 5851 5852 5851 5851 5851 5850 5850 5849 5849 5848 5848 5848 5848 5848 5848 5848 5848 5847 5847 5847 5847 5846 5846 5846 5846 5846 5846 5845 5845 5844 5844 5844 5843 5843 5843 5843 5842 5841 5841
5846 5847 5848 5848 5848 5848 5848 5848 5848 5847 5846 5846 5846 5845 5845 5845 5845 5845 5844 5844 5843 5843 5843 5843 5842 5842 5842 5842 5841 5841 5840 5840 5839 5839 5838 5837 5837 5836 5836 5835 5835 5834 5833
5843 5844 5844 5845 5845 5845 5845 5844 5844 5844 5843 5842 5842 5842 5842 5842 5841 5841 5840 5840 5840 5839 5839 5838 5838 5838 5837 5837 5836 5836 5836 5835 5834 5833 5832 5831 5830 5829 5829 5828 5827 5827 5826
5839 5840 5841 5841 5842 5842 5841 5841 5840 5840 5840 5839 5839 5839 5838 5838 5838 5837 5837 5837 5836 5836 5835 5834 5834 5833 5832 5832 5831 5831 5831 5830 5829 5827 5826 5825 5824 5823 5822 5821 5820 5819 5818
5835 5836 5836 5837 5838 5838 5838 5838 5837 5837 5837 5836 5836 5835 5835 5834 5834 5833 5833 5833 5832 5832 5831 5830 5829 5829 5828 5827 5827 5826 5826 5824 5823 5822 5820 5819 5817 5816 5815 5814 5813 5811 5810
5830 5831 5832 5832 5833 5833 5834 5834 5834 5834 5833 5833 5832 5832 5831 5831 5830 5829 5829 5828 5828 5827 5827 5826 5825 5824 5823 5822 5822 5821 5820 5819 5817 5816 5814 5813 5811 5809 5808 5806 5805 5803 5802
5825 5826 5827 5827 5828 5829 5829 5830 5830 5830 5830 5829 5829 5828 5827 5827 5826 5825 5824 5824 5823 5822 5822 5821 5820 5819 5818 5818 5817 5816 5814 5813 5812 5810 5808 5806 5805 5803 5801 5799 5797 5796 5794
5820 5821 5822 5822 5822 5823 5824 5825 5826 5825 5825 5825 5824 5824 5823 5822 5822 5821 5820 5819 5818 5818 5817 5816 5815 5814 5813 5812 5811 5810 5809 5808 5806 5804 5802 5801 5798 5796 5794 5792 5790 5788 5786
5815 5815 5816 5817 5818 5818 5819 5820 5821 5821 5821 5820 5820 5819 5819 5818 5817 5816 5815 5815 5814 5813 5812 5811 5810 5809 5808 5807 5806 5805 5804 5802 5800 5798 5796 5794 5792 5790 5788 5785 5783 5780 5777
5809 5809 5810 5811 5812 5813 5814 5814 5815 5815 5815 5815 5815 5815 5814 5813 5813 5812 5811 5810 5809 5808 5807 5806 5805 5804 5803 5802 5801 5799 5798 5796 5794 5792 5790 5788 5785 5783 5780 5777 5774 5771 5768
5803 5803 5804 5805 5806 5807 5808 5809 5809 5810 5810 5810 5810 5809 5809 5808 5808 5807 5806 5805 5804 5803 5802 5801 5800 5799 5798 5796 5795 5793 5792 5790 5788 5786 5783 5780 5778 5775 5772 5768 5765 5761 5757